• In United Kingdom
  • List of Countries
  • For 7 days
  • Water Temperature
  • Satellite Maps
  • Weather Map
  • Weather Widgets
  • user-avatar
    Login

    Hourly Weather Bielce

    Today, 25 November, Saturday

    Time Temperature Precipitation Wind Pressure Humidity
    00:00 +3°C° 0 mm 4 mps 757 mmHg 85%
    01:00 +3°C° 0 mm 4 mps 757 mmHg 87%
    02:00 +3°C° 0 mm 3 mps 757 mmHg 88%
    03:00 +3°C° 0 mm 3 mps 756 mmHg 88%
    04:00 +3°C° 0 mm 4 mps 756 mmHg 89%
    05:00 +4°C° 0 mm 4 mps 756 mmHg 89%
    06:00 +4°C° 0 mm 4 mps 756 mmHg 89%
    07:00 +4°C° 0 mm 4 mps 756 mmHg 89%
    08:00 +4°C° 0 mm 4 mps 755 mmHg 89%
    09:00 +5°C° 0 mm 5 mps 755 mmHg 87%
    10:00 +6°C° 0 mm 5 mps 755 mmHg 84%
    11:00 +6°C° 0 mm 5 mps 755 mmHg 82%
    12:00 +7°C° 0 mm 5 mps 754 mmHg 80%
    13:00 +7°C° 0 mm 6 mps 754 mmHg 77%
    14:00 +8°C° 0 mm 6 mps 753 mmHg 75%
    15:00 +8°C° 0 mm 6 mps 753 mmHg 76%
    16:00 +7°C° 0 mm 5 mps 753 mmHg 78%
    17:00 +7°C° 0 mm 5 mps 753 mmHg 80%
    18:00 +7°C° 0 mm 5 mps 752 mmHg 82%
    19:00 +7°C° 0 mm 5 mps 752 mmHg 84%
    20:00 +7°C° 0 mm 6 mps 752 mmHg 86%
    21:00 +7°C° 0 mm 6 mps 752 mmHg 87%
    22:00 +7°C° 0 mm 5 mps 752 mmHg 88%
    23:00 +7°C° 0 mm 5 mps 752 mmHg 88%

    Tomorrow, 26 November, Sunday

    Time Temperature Precipitation Wind Pressure Humidity
    00:00 +7°C° 0 mm 5 mps 752 mmHg 89%
    01:00 +7°C° 0 mm 5 mps 752 mmHg 89%
    02:00 +7°C° 0 mm 5 mps 751 mmHg 90%
    03:00 +7°C° 0 mm 5 mps 751 mmHg 89%
    04:00 +7°C° 0 mm 5 mps 751 mmHg 89%
    05:00 +6°C° 0 mm 5 mps 751 mmHg 89%
    06:00 +6°C° 0 mm 5 mps 751 mmHg 89%
    07:00 +6°C° 0 mm 4 mps 751 mmHg 89%
    08:00 +6°C° 0 mm 4 mps 751 mmHg 89%
    09:00 +7°C° 0 mm 5 mps 751 mmHg 87%
    10:00 +8°C° 0 mm 5 mps 751 mmHg 85%
    11:00 +8°C° 0 mm 5 mps 751 mmHg 82%
    12:00 +8°C° 0 mm 5 mps 751 mmHg 82%
    13:00 +9°C° 0 mm 5 mps 751 mmHg 81%
    14:00 +9°C° 0 mm 5 mps 751 mmHg 80%
    15:00 +9°C° 0 mm 5 mps 751 mmHg 81%
    16:00 +8°C° 0 mm 4 mps 751 mmHg 83%
    17:00 +8°C° 0 mm 4 mps 751 mmHg 84%
    18:00 +8°C° 0.1 mm 4 mps 751 mmHg 85%
    19:00 +8°C° 0.1 mm 5 mps 751 mmHg 87%
    20:00 +8°C° 0.1 mm 5 mps 751 mmHg 88%
    21:00 +7°C° 0.1 mm 5 mps 751 mmHg 88%
    22:00 +7°C° 0.1 mm 5 mps 751 mmHg 89%
    23:00 +7°C° 0.1 mm 4 mps 751 mmHg 89%

    Day after tomorrow, 27 November, Monday

    Time Temperature Precipitation Wind Pressure Humidity
    00:00 +7°C° 0.2 mm 4 mps 751 mmHg 90%
    01:00 +7°C° 0.2 mm 4 mps 751 mmHg 90%
    02:00 +7°C° 0.2 mm 4 mps 751 mmHg 91%
    03:00 +7°C° 0.3 mm 4 mps 751 mmHg 91%
    04:00 +8°C° 0.3 mm 3 mps 751 mmHg 91%
    05:00 +8°C° 0.3 mm 3 mps 751 mmHg 91%
    06:00 +7°C° 0.4 mm 3 mps 751 mmHg 91%
    07:00 +7°C° 0.4 mm 3 mps 751 mmHg 91%
    08:00 +7°C° 0.4 mm 3 mps 752 mmHg 90%
    09:00 +7°C° 0.4 mm 3 mps 752 mmHg 89%
    10:00 +7°C° 0.4 mm 3 mps 752 mmHg 88%
    11:00 +7°C° 0.4 mm 3 mps 752 mmHg 88%
    12:00 +7°C° 0.2 mm 3 mps 752 mmHg 86%
    13:00 +7°C° 0.2 mm 3 mps 752 mmHg 85%
    14:00 +7°C° 0.2 mm 3 mps 752 mmHg 84%
    15:00 +6°C° 0.2 mm 4 mps 752 mmHg 84%
    16:00 +6°C° 0.2 mm 4 mps 753 mmHg 85%
    17:00 +6°C° 0.2 mm 4 mps 753 mmHg 86%
    18:00 +6°C° 0.2 mm 4 mps 753 mmHg 85%
    19:00 +5°C° 0.2 mm 5 mps 753 mmHg 85%
    20:00 +5°C° 0.2 mm 5 mps 753 mmHg 85%
    21:00 +5°C° 0.2 mm 5 mps 753 mmHg 85%
    22:00 +5°C° 0.2 mm 5 mps 753 mmHg 85%
    23:00 +5°C° 0.2 mm 5 mps 754 mmHg 85%

    28 November, Tuesday

    Time Temperature Precipitation Wind Pressure Humidity
    00:00 +5°C° 0.2 mm 5 mps 754 mmHg 85%
    01:00 +3°C° 0.2 mm 5 mps 753 mmHg 85%
    02:00 +3°C° 0.2 mm 5 mps 753 mmHg 86%
    03:00 +4°C° 0.2 mm 4 mps 753 mmHg 86%
    04:00 +4°C° 0.2 mm 4 mps 753 mmHg 87%
    05:00 +4°C° 0.2 mm 4 mps 753 mmHg 87%
    06:00 +4°C° 0.4 mm 4 mps 753 mmHg 88%
    07:00 +4°C° 0.4 mm 3 mps 753 mmHg 89%
    08:00 +4°C° 0.4 mm 3 mps 753 mmHg 90%
    09:00 +5°C° 0.3 mm 3 mps 753 mmHg 89%
    10:00 +5°C° 0.3 mm 3 mps 753 mmHg 89%
    11:00 +5°C° 0.3 mm 3 mps 752 mmHg 88%
    12:00 +7°C° 0.1 mm 3 mps 752 mmHg 86%
    13:00 +7°C° 0.1 mm 3 mps 751 mmHg 83%
    14:00 +8°C° 0.1 mm 3 mps 751 mmHg 81%
    15:00 +7°C° 0 mm 3 mps 751 mmHg 81%
    16:00 +7°C° 0 mm 3 mps 751 mmHg 82%
    17:00 +5°C° 0 mm 3 mps 750 mmHg 82%
    18:00 +5°C° 0.1 mm 3 mps 750 mmHg 81%
    19:00 +5°C° 0.1 mm 4 mps 750 mmHg 80%
    20:00 +4°C° 0.1 mm 4 mps 750 mmHg 79%
    21:00 +4°C° 0.5 mm 4 mps 750 mmHg 81%
    22:00 +4°C° 0.5 mm 4 mps 750 mmHg 82%
    23:00 +4°C° 0.5 mm 4 mps 749 mmHg 83%

    29 November, Wednesday

    Time Temperature Precipitation Wind Pressure Humidity
    00:00 +4°C° 0.3 mm 4 mps 749 mmHg 85%
    01:00 +4°C° 0.3 mm 3 mps 749 mmHg 86%
    02:00 +4°C° 0.3 mm 3 mps 749 mmHg 87%
    03:00 +4°C° 0.1 mm 3 mps 748 mmHg 88%
    04:00 +4°C° 0.1 mm 3 mps 748 mmHg 88%
    05:00 +4°C° 0.1 mm 3 mps 748 mmHg 89%
    06:00 +4°C° 0 mm 3 mps 748 mmHg 89%
    07:00 +4°C° 0 mm 3 mps 748 mmHg 90%
    08:00 +4°C° 0 mm 3 mps 748 mmHg 90%
    09:00 +5°C° 0 mm 3 mps 748 mmHg 89%
    10:00 +5°C° 0 mm 3 mps 748 mmHg 88%
    11:00 +7°C° 0 mm 3 mps 748 mmHg 87%
    12:00 +6°C° 0 mm 4 mps 748 mmHg 84%
    13:00 +7°C° 0 mm 4 mps 747 mmHg 82%
    14:00 +8°C° 0 mm 4 mps 747 mmHg 80%
    15:00 +7°C° 0 mm 4 mps 747 mmHg 82%
    16:00 +8°C° 0 mm 3 mps 747 mmHg 83%
    17:00 +7°C° 0 mm 3 mps 748 mmHg 85%
    18:00 +7°C° 0 mm 3 mps 748 mmHg 86%
    19:00 +5°C° 0 mm 3 mps 748 mmHg 88%
    20:00 +5°C° 0 mm 3 mps 749 mmHg 90%
    21:00 +4°C° 0 mm 3 mps 749 mmHg 90%
    22:00 +5°C° 0 mm 2 mps 749 mmHg 91%
    23:00 +5°C° 0 mm 2 mps 749 mmHg 91%

    30 November, Thursday

    Time Temperature Precipitation Wind Pressure Humidity
    00:00 +5°C° 0 mm 2 mps 749 mmHg 91%
    01:00 +4°C° 0 mm 2 mps 749 mmHg 90%
    02:00 +4°C° 0 mm 2 mps 750 mmHg 90%
    03:00 +4°C° 0 mm 2 mps 749 mmHg 90%
    04:00 +3°C° 0 mm 2 mps 749 mmHg 90%
    05:00 +3°C° 0 mm 2 mps 749 mmHg 91%
    06:00 +3°C° 0 mm 2 mps 749 mmHg 91%
    07:00 +2°C° 0 mm 3 mps 749 mmHg 91%
    08:00 +2°C° 0 mm 3 mps 749 mmHg 91%
    09:00 +2°C° 0 mm 5 mps 748 mmHg 81%
    10:00 +4°C° 0 mm 6 mps 748 mmHg 70%
    11:00 +5°C° 0 mm 8 mps 747 mmHg 60%
    12:00 +6°C° 0 mm 8 mps 747 mmHg 58%
    13:00 +7°C° 0 mm 9 mps 746 mmHg 55%
    14:00 +8°C° 0 mm 9 mps 745 mmHg 53%
    15:00 +8°C° 0 mm 9 mps 745 mmHg 58%
    16:00 +9°C° 0 mm 8 mps 744 mmHg 63%
    17:00 +7°C° 0 mm 8 mps 744 mmHg 68%
    18:00 +7°C° 0 mm 8 mps 744 mmHg 69%
    19:00 +7°C° 0 mm 8 mps 744 mmHg 70%
    20:00 +7°C° 0 mm 8 mps 743 mmHg 71%
    21:00 +8°C° 0.2 mm 7 mps 743 mmHg 74%
    22:00 +8°C° 0.2 mm 7 mps 743 mmHg 78%
    23:00 +8°C° 0.2 mm 6 mps 743 mmHg 81%
    Show more